NIKOLSKI AK US NWS current weather conditions

sailwx.info

Wind from 240 at 12 knots gusting 25

Air temperature 5.6° C
Dewpoint 4.6° C

Last reported at 2020-Aug-04 13:02 UTC.
Time now 2020-Aug-04 13:54 UTC

Location: N 52°58' W 168°51'.
View on Google Maps.

See reports from other nearby stations

  
Tides and Currents Weather Stations Pressure Air Temp Water Temp Dewpoint Dewpoint Depression Visibility Wind Speed Wind Dir Waves Ship Positions
date/time (UTC)wind fromknots sea level pressurealtimeterstation pressurevisibilityair tempwater tempwave heightnotes
2020-Aug-04 13:02 240 12 gusting 25 5.6
2020-Aug-04 12:52 250 9 gusting 22 5.8
2020-Aug-04 12:42 250 11 gusting 31 6.2
2020-Aug-04 12:32 200 7 gusting 21 6.3
2020-Aug-04 12:22 190 7 gusting 26 6.3
2020-Aug-04 12:12 150 8 gusting 20 6.3
2020-Aug-04 12:02 140 9 gusting 21 6.3
2020-Aug-04 11:52 010 12 gusting 24 6.3
2020-Aug-04 11:42 330 11 gusting 21 6.1
2020-Aug-04 11:32 260 7 gusting 17 6.2
2020-Aug-04 11:22 190 8 gusting 18 6.3
2020-Aug-04 11:12 210 7 gusting 22 6.3
2020-Aug-04 11:02 190 13 gusting 28 6.5
2020-Aug-04 10:52 190 14 gusting 26 6.5
2020-Aug-04 10:42 180 14 gusting 27 6.0
2020-Aug-04 10:32 200 13 gusting 32 5.5
2020-Aug-04 10:22 220 15 gusting 27 5.3
2020-Aug-04 10:12 210 17 gusting 32 5.9
2020-Aug-04 10:02 190 14 gusting 33 6.3
2020-Aug-04 09:52 170 15 gusting 27 5.9
2020-Aug-04 09:42 180 13 gusting 26 6.5
2020-Aug-04 09:32 180 14 gusting 27 6.8
2020-Aug-04 09:22 180 14 gusting 33 6.7
2020-Aug-04 09:12 170 17 gusting 27 6.7
2020-Aug-04 09:02 170 17 gusting 29 6.3
2020-Aug-04 08:52 170 14 gusting 27 6.5
2020-Aug-04 08:42 170 13 gusting 25 6.5
2020-Aug-04 08:32 170 14 gusting 28 6.6
2020-Aug-04 08:22 170 13 gusting 27 6.7
2020-Aug-04 08:12 170 13 gusting 28 6.7
2020-Aug-04 08:02 180 13 gusting 31 6.5
2020-Aug-04 07:52 210 15 gusting 41 5.9
2020-Aug-04 07:42 200 15 gusting 31 5.9
2020-Aug-04 07:32 170 12 gusting 28 6.7
2020-Aug-04 07:22 180 14 gusting 34 6.9
2020-Aug-04 07:12 180 15 gusting 27 6.6
2020-Aug-04 07:02 200 13 gusting 34 6.1
2020-Aug-04 06:52 210 13 gusting 32 6.0
2020-Aug-04 06:42 200 14 gusting 48 6.3
2020-Aug-04 06:32 160 15 gusting 35 6.7
2020-Aug-04 06:22 170 14 gusting 34 6.7
2020-Aug-04 06:12 160 15 gusting 34 6.4
2020-Aug-04 06:02 150 18 gusting 34 6.2
2020-Aug-04 05:52 170 15 gusting 34 6.2
2020-Aug-04 05:42 160 17 gusting 44 6.4
2020-Aug-04 05:32 160 15 gusting 28 6.7
2020-Aug-04 05:22 170 13 gusting 31 6.6
2020-Aug-04 05:12 160 15 gusting 31 6.5
2020-Aug-04 05:02 180 18 gusting 35 6.4
2020-Aug-04 04:52 160 14 gusting 29 6.4
2020-Aug-04 04:42 180 15 gusting 38 6.4
2020-Aug-04 04:32 240 20 gusting 45 6.1
2020-Aug-04 04:22 230 18 gusting 48 6.1
2020-Aug-04 04:12 210 14 gusting 29 6.5
2020-Aug-04 04:02 220 18 gusting 44 6.7
2020-Aug-04 03:52 190 14 gusting 38 6.9
2020-Aug-04 03:42 190 14 gusting 34 6.7
2020-Aug-04 03:32 190 13 gusting 34 6.9
2020-Aug-04 03:22 200 13 gusting 33 6.6
2020-Aug-04 03:12 240 14 gusting 39 6.4
2020-Aug-04 03:02 250 17 gusting 45 6.3
2020-Aug-04 02:52 240 15 gusting 41 6.6
2020-Aug-04 02:42 240 15 gusting 34 6.6
2020-Aug-04 02:32 240 14 gusting 40 6.6
2020-Aug-04 02:22 240 15 gusting 33 6.7
2020-Aug-04 02:12 180 13 gusting 31 7.2
2020-Aug-04 02:02 180 14 gusting 39 7.3
2020-Aug-04 01:52 220 15 gusting 32 7.1
2020-Aug-04 01:42 210 17 gusting 39 7.0
2020-Aug-04 01:32 230 15 gusting 34 6.9
2020-Aug-04 01:22 190 15 gusting 41 7.6
2020-Aug-04 01:12 180 14 gusting 28 7.9
2020-Aug-04 01:02 170 13 gusting 33 8.0
2020-Aug-04 00:52 180 13 gusting 42 7.8
2020-Aug-04 00:42 180 13 gusting 32 7.7
2020-Aug-04 00:32 180 13 gusting 27 7.8
2020-Aug-04 00:22 160 13 gusting 31 7.9
2020-Aug-04 00:12 170 13 gusting 36 7.9
2020-Aug-03 23:52 160 13 gusting 31 7.2
2020-Aug-03 23:42 210 13 gusting 31 7.2
2020-Aug-03 23:32 230 15 gusting 34 7.2
2020-Aug-03 23:22 240 15 gusting 29 7.3
2020-Aug-03 23:12 230 13 gusting 33 7.5
2020-Aug-03 23:02 240 14 gusting 34 7.4
2020-Aug-03 22:52 240 14 gusting 34 7.6
2020-Aug-03 22:42 240 15 gusting 29 7.7
2020-Aug-03 22:32 240 14 gusting 38 7.9
2020-Aug-03 22:22 220 14 gusting 33 8.3
2020-Aug-03 22:12 230 13 gusting 27 8.4
2020-Aug-03 22:02 200 12 gusting 28 8.5
2020-Aug-03 21:52 180 11 gusting 27 8.6
2020-Aug-03 21:42 160 12 gusting 27 8.5
2020-Aug-03 21:32 180 13 gusting 34 8.2
2020-Aug-03 21:22 170 11 gusting 32 7.8
2020-Aug-03 21:12 160 12 gusting 28 7.6
2020-Aug-03 21:02 170 12 gusting 27 7.5
2020-Aug-03 20:52 160 12 gusting 28 7.2
2020-Aug-03 20:42 160 12 gusting 28 6.9
2020-Aug-03 20:32 180 12 gusting 29 7.1
2020-Aug-03 20:22 160 12 gusting 29 7.5
2020-Aug-03 20:12 180 12 gusting 31 7.5
2020-Aug-03 20:02 170 11 gusting 27 7.6
2020-Aug-03 19:52 170 13 gusting 27 7.5
2020-Aug-03 19:42 170 13 gusting 28 7.3
2020-Aug-03 19:32 170 12 gusting 26 7.2
2020-Aug-03 19:22 180 12 gusting 20 7.1
2020-Aug-03 19:12 170 12 gusting 22 7.1
2020-Aug-03 19:02 180 11 gusting 25 7.1
2020-Aug-03 18:52 170 12 gusting 25 7.2
2020-Aug-03 18:42 180 12 gusting 27 7.0
2020-Aug-03 18:32 180 13 gusting 25 6.7
2020-Aug-03 18:22 170 13 gusting 22 6.5
2020-Aug-03 18:12 160 13 gusting 27 6.7
2020-Aug-03 18:02 180 13 gusting 26 6.8
2020-Aug-03 17:52 170 13 gusting 27 6.6
2020-Aug-03 17:42 190 13 gusting 24 6.3
2020-Aug-03 17:32 190 13 gusting 46 6.2
2020-Aug-03 17:22 190 13 gusting 47 6.2
2020-Aug-03 17:12 180 8 gusting 27 6.2
2020-Aug-03 17:02 240 6 gusting 21 5.8
2020-Aug-03 16:52 320 6 gusting 17 5.6
2020-Aug-03 16:42 320 6 gusting 17 5.5
2020-Aug-03 16:32 330 7 gusting 15 5.5
2020-Aug-03 16:22 320 11 gusting 21 5.5
2020-Aug-03 16:12 320 7 gusting 17 5.6
2020-Aug-03 16:02 340 7 gusting 18 5.7
2020-Aug-03 15:52 340 13 gusting 25 5.8
2020-Aug-03 15:42 330 17 gusting 29 5.9
2020-Aug-03 15:32 340 12 gusting 26 5.8
2020-Aug-03 15:22 340 9 gusting 21 5.9
2020-Aug-03 15:12 350 8 gusting 18 6.1
2020-Aug-03 15:02 330 7 gusting 18 6.2
2020-Aug-03 14:52 210 7 gusting 24 6.3
2020-Aug-03 14:42 040 8 gusting 24 6.3
2020-Aug-03 14:32 330 8 gusting 21 6.3
2020-Aug-03 14:22 190 8 gusting 33 6.4
2020-Aug-03 14:12 170 9 gusting 21 6.6
2020-Aug-03 14:02 170 7 gusting 20 6.7
2020-Aug-03 13:52 180 8 gusting 25 6.5
2020-Aug-03 13:42 180 8 gusting 20 6.1
2020-Aug-03 13:32 190 11 gusting 27 5.8
2020-Aug-03 13:22 190 17 gusting 35 5.5
2020-Aug-03 13:12 210 13 gusting 27 5.3
2020-Aug-03 13:02 220 12 gusting 25 5.3
2020-Aug-03 12:52 230 13 gusting 27 5.2
2020-Aug-03 12:42 230 13 gusting 22 5.4
2020-Aug-03 12:32 230 13 gusting 22 5.3
2020-Aug-03 12:22 230 15 gusting 34 5.2
2020-Aug-03 12:12 230 13 gusting 22 5.4
2020-Aug-03 12:02 250 13 gusting 24 5.6
2020-Aug-03 11:52 240 13 gusting 21 5.4
2020-Aug-03 11:42 230 20 gusting 34 5.2
2020-Aug-03 11:32 220 25 gusting 32 5.2
2020-Aug-03 11:22 230 24 gusting 34 5.4
2020-Aug-03 11:12 230 26 gusting 35 5.3
2020-Aug-03 11:02 230 27 gusting 39 5.4
2020-Aug-03 10:52 230 26 gusting 36 5.4
2020-Aug-03 10:42 230 20 gusting 36 5.4
2020-Aug-03 10:32 230 24 gusting 32 5.3
2020-Aug-03 10:22 240 21 gusting 29 5.3
2020-Aug-03 10:12 240 21 gusting 34 5.2
2020-Aug-03 10:02 240 22 gusting 36 5.3
2020-Aug-03 09:52 230 26 gusting 39 5.3
2020-Aug-03 09:42 230 20 gusting 26 5.5
2020-Aug-03 09:32 230 20 gusting 26 5.7
2020-Aug-03 09:22 240 20 gusting 26 5.6
2020-Aug-03 09:12 240 19 gusting 24 5.3
2020-Aug-03 09:02 240 19 gusting 22 5.5
2020-Aug-03 08:52 230 17 gusting 20 5.5
2020-Aug-03 08:42 230 18 gusting 24 5.7
2020-Aug-03 08:32 240 18 gusting 22 5.5
2020-Aug-03 08:22 220 13 gusting 20 4.9
2020-Aug-03 08:12 210 12 gusting 19 4.8
2020-Aug-03 08:02 210 13 gusting 20 5.0
2020-Aug-03 07:52 200 15 gusting 20 5.1
2020-Aug-03 07:42 190 15 gusting 20 5.1
2020-Aug-03 07:32 200 13 gusting 20 5.0
2020-Aug-03 07:22 210 20 gusting 47 4.8
2020-Aug-03 07:12 210 4.8
2020-Aug-03 07:02 200 17 gusting 26 4.8
2020-Aug-03 06:52 200 9 gusting 18 4.9
2020-Aug-03 06:42 190 5 gusting 13 5.0
2020-Aug-03 06:32 170 4 gusting 12 5.0
2020-Aug-03 06:22 180 5 gusting 14 5.0
2020-Aug-03 06:12 180 5 gusting 13 5.0
2020-Aug-03 06:02 200 6 gusting 21 5.0
2020-Aug-03 05:52 220 8 gusting 20 5.1
2020-Aug-03 05:42 220 7 gusting 20 5.1
2020-Aug-03 05:32 190 5 gusting 17 5.1
2020-Aug-03 05:22 230 14 gusting 22 5.1
2020-Aug-03 05:12 230 8 gusting 17 5.6
2020-Aug-03 05:02 210 6 gusting 15 5.6
2020-Aug-03 04:52 220 12 gusting 19 5.9
2020-Aug-03 04:42 220 14 gusting 20 6.0
2020-Aug-03 04:32 220 15 gusting 20 6.1
2020-Aug-03 04:22 210 8 gusting 17 6.2
2020-Aug-03 04:12 210 7 gusting 14 5.8
2020-Aug-03 04:02 210 11 gusting 21 5.5
2020-Aug-03 03:52 220 15 gusting 24 5.6
2020-Aug-03 03:42 230 17 gusting 20 5.4
2020-Aug-03 03:32 240 8 gusting 14 5.0
2020-Aug-03 03:22 220 6 gusting 12 5.2
2020-Aug-03 03:12 210 6 gusting 13 5.2
2020-Aug-03 03:02 170 5 gusting 12 5.2
2020-Aug-03 02:52 220 9 gusting 17 5.1
2020-Aug-03 02:42 230 11 gusting 17 5.1
2020-Aug-03 02:32 220 9 gusting 18 5.2
2020-Aug-03 02:22 210 9 gusting 20 5.2
2020-Aug-03 02:12 220 15 gusting 21 5.3
2020-Aug-03 02:02 220 12 gusting 20 5.9
2020-Aug-03 01:52 170 5 gusting 13 6.2
2020-Aug-03 01:42 170 5 gusting 11 6.2
2020-Aug-03 01:32 160 6 gusting 15 6.5
2020-Aug-03 01:22 170 6 gusting 11 6.7
2020-Aug-03 01:12 160 6 gusting 13 6.7
2020-Aug-03 01:02 160 6 gusting 13 6.5
2020-Aug-03 00:52 150 6 gusting 24 6.5
2020-Aug-03 00:42 150 6 gusting 13 6.7
2020-Aug-03 00:32 160 6 gusting 25 6.7
2020-Aug-02 21:32 180 13 gusting 41 7.6
2020-Aug-02 21:22 150 8 gusting 21 7.8
2020-Aug-02 21:12 140 9 gusting 18 7.7
2020-Aug-02 21:02 140 9 gusting 19 7.7
2020-Aug-02 20:52 140 9 gusting 18 7.5
2020-Aug-02 20:42 150 9 gusting 31 7.3
2020-Aug-02 20:32 140 9 gusting 24 7.2
2020-Aug-02 20:22 160 8 gusting 34 7.3
2020-Aug-02 20:12 070 6 gusting 27 7.4
2020-Aug-02 20:02 090 6 gusting 24 7.3
2020-Aug-02 19:52 110 7 gusting 20 7.2
2020-Aug-02 19:42 090 7 gusting 22 7.1
2020-Aug-02 19:32 120 7 gusting 27 7.1
2020-Aug-02 19:22 100 7 gusting 25 7.0
2020-Aug-02 19:12 130 8 gusting 40 6.9
2020-Aug-02 19:02 140 8 gusting 38 6.9
2020-Aug-02 18:52 150 7 gusting 26 6.9
2020-Aug-02 18:42 130 6 gusting 20 6.9
2020-Aug-02 18:32 110 6 gusting 14 6.9
2020-Aug-02 18:22 140 7 gusting 33 6.8
2020-Aug-02 18:12 130 6 gusting 15 6.8
2020-Aug-02 18:02 150 7 gusting 34 6.7
2020-Aug-02 17:52 130 6 gusting 20 6.7
2020-Aug-02 17:42 110 6 gusting 13 6.7
2020-Aug-02 17:32 120 6 gusting 13 6.7
2020-Aug-02 17:22 130 7 gusting 13 6.7
2020-Aug-02 17:12 140 8 gusting 42 6.7
2020-Aug-02 17:02 140 7 gusting 26 6.7
2020-Aug-02 16:52 160 8 gusting 31 6.7
2020-Aug-02 16:42 150 7 gusting 27 6.7
2020-Aug-02 16:32 180 9 gusting 32 6.7
2020-Aug-02 16:22 210 15 gusting 41 6.7
2020-Aug-02 16:12 180 9 gusting 35 6.7
2020-Aug-02 16:02 170 7 gusting 26 6.7
2020-Aug-02 15:52 200 13 gusting 41 6.7
2020-Aug-02 15:42 170 7 gusting 20 6.6
2020-Aug-02 15:32 170 6 gusting 20 6.6
2020-Aug-02 15:22 210 14 gusting 41 6.5
2020-Aug-02 15:12 170 7 gusting 19 6.4
2020-Aug-02 15:02 210 14 gusting 34 6.4
2020-Aug-02 14:52 180 6 gusting 21 6.4
2020-Aug-02 14:42 170 6 gusting 15 6.4
2020-Aug-02 14:32 170 8 gusting 20 6.4
2020-Aug-02 14:22 180 11 gusting 32 6.4
2020-Aug-02 14:12 200 12 gusting 29 6.4
2020-Aug-02 14:02 200 13 gusting 35 6.4
2020-Aug-02 13:52 190 11 gusting 32 6.4
2020-Aug-02 13:42 210 15 gusting 38 6.2
2020-Aug-02 13:32 210 14 gusting 40 6.2
2020-Aug-02 13:22 160 7 gusting 19 6.2
2020-Aug-02 13:12 160 8 gusting 27 6.2
2020-Aug-02 13:02 150 8 gusting 18 6.3